Year,Month,Day,Hour,Minute,Value (Times are PST for temperature in C)
2009,08,21,00,00,19.30
2009,08,21,00,01,19.30
2009,08,21,00,02,19.30
2009,08,21,00,03,19.30
2009,08,21,00,04,19.30
2009,08,21,00,05,19.40
2009,08,21,00,06,19.40
2009,08,21,00,07,19.40
2009,08,21,00,08,19.40
2009,08,21,00,09,19.40
2009,08,21,00,10,19.40
2009,08,21,00,11,19.50
2009,08,21,00,12,19.50
2009,08,21,00,13,19.60
2009,08,21,00,14,19.60
2009,08,21,00,15,19.60
2009,08,21,00,16,19.70
2009,08,21,00,17,19.70
2009,08,21,00,18,19.70
2009,08,21,00,19,19.70
2009,08,21,00,20,19.70
2009,08,21,00,21,19.80
2009,08,21,00,22,19.80
2009,08,21,00,23,19.80
2009,08,21,00,24,19.80
2009,08,21,00,25,19.80
2009,08,21,00,26,19.80
2009,08,21,00,27,19.80
2009,08,21,00,28,19.80
2009,08,21,00,29,19.80
2009,08,21,00,30,19.80
2009,08,21,00,31,19.80
2009,08,21,00,32,19.80
2009,08,21,00,33,19.80
2009,08,21,00,34,19.70
2009,08,21,00,35,19.70
2009,08,21,00,36,19.70
2009,08,21,00,37,19.70
2009,08,21,00,38,19.70
2009,08,21,00,39,19.70
2009,08,21,00,40,19.60
2009,08,21,00,41,19.60
2009,08,21,00,42,19.60
2009,08,21,00,43,19.60
2009,08,21,00,44,19.60
2009,08,21,00,45,19.60
2009,08,21,00,46,19.60
2009,08,21,00,47,19.50
2009,08,21,00,48,19.50
2009,08,21,00,49,19.50
2009,08,21,00,50,19.50
2009,08,21,00,51,19.40
2009,08,21,00,52,19.40
2009,08,21,00,53,19.40
2009,08,21,00,54,19.40
2009,08,21,00,55,19.30
2009,08,21,00,56,19.30
2009,08,21,00,57,19.30
2009,08,21,00,58,19.30
2009,08,21,00,59,19.20
2009,08,21,01,00,19.20
2009,08,21,01,01,19.20
2009,08,21,01,02,19.20
2009,08,21,01,03,19.10
2009,08,21,01,04,19.10
2009,08,21,01,05,19.10
2009,08,21,01,06,19.10
2009,08,21,01,07,19.00
2009,08,21,01,08,19.00
2009,08,21,01,09,19.00
2009,08,21,01,10,18.90
2009,08,21,01,11,18.90
2009,08,21,01,12,18.90
2009,08,21,01,13,18.90
2009,08,21,01,14,18.90
2009,08,21,01,15,18.80
2009,08,21,01,16,18.80
2009,08,21,01,17,18.80
2009,08,21,01,18,18.80
2009,08,21,01,19,18.80
2009,08,21,01,20,18.80
2009,08,21,01,21,18.80
2009,08,21,01,22,18.80
2009,08,21,01,23,18.80
2009,08,21,01,24,18.80
2009,08,21,01,25,18.80
2009,08,21,01,26,18.80
2009,08,21,01,27,18.80
2009,08,21,01,28,18.80
2009,08,21,01,29,18.80
2009,08,21,01,30,18.80
2009,08,21,01,31,18.80
2009,08,21,01,32,18.80
2009,08,21,01,33,18.80
2009,08,21,01,34,18.80
2009,08,21,01,35,18.80
2009,08,21,01,36,18.80
2009,08,21,01,37,18.70
2009,08,21,01,38,18.70
2009,08,21,01,39,18.70
2009,08,21,01,40,18.70
2009,08,21,01,41,18.70
2009,08,21,01,42,18.70
2009,08,21,01,43,18.70
2009,08,21,01,44,18.60
2009,08,21,01,45,18.60
2009,08,21,01,46,18.60
2009,08,21,01,47,18.60
2009,08,21,01,48,18.60
2009,08,21,01,49,18.50
2009,08,21,01,50,18.50
2009,08,21,01,51,18.40
2009,08,21,01,52,18.40
2009,08,21,01,53,18.40
2009,08,21,01,54,18.40
2009,08,21,01,55,18.40
2009,08,21,01,56,18.30
2009,08,21,01,57,18.30
2009,08,21,01,58,18.30
2009,08,21,01,59,18.30
2009,08,21,02,00,18.30
2009,08,21,02,01,18.30
2009,08,21,02,02,18.30
2009,08,21,02,03,18.30
2009,08,21,02,04,18.30
2009,08,21,02,05,18.30
2009,08,21,02,06,18.30
2009,08,21,02,07,18.30
2009,08,21,02,08,18.30
2009,08,21,02,09,18.30
2009,08,21,02,10,18.30
2009,08,21,02,11,18.30
2009,08,21,02,12,18.20
2009,08,21,02,13,18.20
2009,08,21,02,14,18.20
2009,08,21,02,15,18.20
2009,08,21,02,16,18.30
2009,08,21,02,17,18.30
2009,08,21,02,18,18.30
2009,08,21,02,19,18.20
2009,08,21,02,20,18.20
2009,08,21,02,21,18.20
2009,08,21,02,22,18.20
2009,08,21,02,23,18.20
2009,08,21,02,24,18.20
2009,08,21,02,25,18.20
2009,08,21,02,26,18.20
2009,08,21,02,27,18.20
2009,08,21,02,28,18.20
2009,08,21,02,29,18.20
2009,08,21,02,30,18.20
2009,08,21,02,31,18.10
2009,08,21,02,32,18.10
2009,08,21,02,33,18.10
2009,08,21,02,34,18.00
2009,08,21,02,35,18.00
2009,08,21,02,36,17.90
2009,08,21,02,37,17.90
2009,08,21,02,38,17.90
2009,08,21,02,39,17.80
2009,08,21,02,40,17.80
2009,08,21,02,41,17.70
2009,08,21,02,42,17.70
2009,08,21,02,43,17.70
2009,08,21,02,44,17.60
2009,08,21,02,45,17.60
2009,08,21,02,46,17.60
2009,08,21,02,47,17.60
2009,08,21,02,48,17.50
2009,08,21,02,49,17.50
2009,08,21,02,50,17.50
2009,08,21,02,51,17.50
2009,08,21,02,52,17.50
2009,08,21,02,53,17.50
2009,08,21,02,54,17.40
2009,08,21,02,55,17.40
2009,08,21,02,56,17.40
2009,08,21,02,57,17.40
2009,08,21,02,58,17.40
2009,08,21,02,59,17.40
2009,08,21,03,00,17.40
2009,08,21,03,01,17.30
2009,08,21,03,02,17.30
2009,08,21,03,03,17.20
2009,08,21,03,04,17.20
2009,08,21,03,05,17.10
2009,08,21,03,06,17.10
2009,08,21,03,07,17.10
2009,08,21,03,08,17.00
2009,08,21,03,09,17.00
2009,08,21,03,10,16.90
2009,08,21,03,11,16.90
2009,08,21,03,12,16.90
2009,08,21,03,13,16.90
2009,08,21,03,14,16.90
2009,08,21,03,15,16.90
2009,08,21,03,16,16.90
2009,08,21,03,17,17.00
2009,08,21,03,18,17.00
2009,08,21,03,19,17.00
2009,08,21,03,20,17.00
2009,08,21,03,21,17.00
2009,08,21,03,22,17.00
2009,08,21,03,23,17.00
2009,08,21,03,24,16.90
2009,08,21,03,25,16.90
2009,08,21,03,26,16.90
2009,08,21,03,27,16.90
2009,08,21,03,28,16.90
2009,08,21,03,29,16.80
2009,08,21,03,30,16.80
2009,08,21,03,31,16.80
2009,08,21,03,32,16.80
2009,08,21,03,33,16.80
2009,08,21,03,34,16.80
2009,08,21,03,35,16.80
2009,08,21,03,36,16.80
2009,08,21,03,37,16.80
2009,08,21,03,38,16.80
2009,08,21,03,39,16.80
2009,08,21,03,40,16.80
2009,08,21,03,41,16.80
2009,08,21,03,42,16.90
2009,08,21,03,43,16.90
2009,08,21,03,44,16.90
2009,08,21,03,45,17.00
2009,08,21,03,46,17.00
2009,08,21,03,47,17.10
2009,08,21,03,48,17.10
2009,08,21,03,49,17.20
2009,08,21,03,50,17.20
2009,08,21,03,51,17.20
2009,08,21,03,52,17.30
2009,08,21,03,53,17.30
2009,08,21,03,54,17.30
2009,08,21,03,55,17.30
2009,08,21,03,56,17.30
2009,08,21,03,57,17.30
2009,08,21,03,58,17.30
2009,08,21,03,59,17.30
2009,08,21,04,00,17.30
2009,08,21,04,01,17.30
2009,08,21,04,02,17.30
2009,08,21,04,03,17.30
2009,08,21,04,04,17.30
2009,08,21,04,05,17.30
2009,08,21,04,06,17.30
2009,08,21,04,07,17.30
2009,08,21,04,08,17.30
2009,08,21,04,09,17.30
2009,08,21,04,10,17.30
2009,08,21,04,11,17.30
2009,08,21,04,12,17.20
2009,08,21,04,13,17.20
2009,08,21,04,14,17.20
2009,08,21,04,15,17.20
2009,08,21,04,16,17.20
2009,08,21,04,17,17.20
2009,08,21,04,18,17.20
2009,08,21,04,19,17.20
2009,08,21,04,20,17.20
2009,08,21,04,21,17.20
2009,08,21,04,22,17.20
2009,08,21,04,23,17.20
2009,08,21,04,24,17.30
2009,08,21,04,25,17.30
2009,08,21,04,26,17.30
2009,08,21,04,27,17.30
2009,08,21,04,28,17.30
2009,08,21,04,29,17.30
2009,08,21,04,30,17.30
2009,08,21,04,31,17.30
2009,08,21,04,32,17.30
2009,08,21,04,33,17.30
2009,08,21,04,34,17.40
2009,08,21,04,35,17.40
2009,08,21,04,36,17.40
2009,08,21,04,37,17.40
2009,08,21,04,38,17.40
2009,08,21,04,39,17.50
2009,08,21,04,40,17.50
2009,08,21,04,41,17.50
2009,08,21,04,42,17.50
2009,08,21,04,43,17.50
2009,08,21,04,44,17.50
2009,08,21,04,45,17.50
2009,08,21,04,46,17.50
2009,08,21,04,47,17.50
2009,08,21,04,48,17.50
2009,08,21,04,49,17.50
2009,08,21,04,50,17.50
2009,08,21,04,51,17.40
2009,08,21,04,52,17.40
2009,08,21,04,53,17.40
2009,08,21,04,54,17.30
2009,08,21,04,55,17.30
2009,08,21,04,56,17.30
2009,08,21,04,57,17.20
2009,08,21,04,58,17.20
2009,08,21,04,59,17.20
2009,08,21,05,00,17.20
2009,08,21,05,01,17.10
2009,08,21,05,02,17.10
2009,08,21,05,03,17.10
2009,08,21,05,04,17.10
2009,08,21,05,05,17.10
2009,08,21,05,06,17.10
2009,08,21,05,07,17.10
2009,08,21,05,08,17.10
2009,08,21,05,09,17.10
2009,08,21,05,10,17.10
2009,08,21,05,11,17.10
2009,08,21,05,12,17.10
2009,08,21,05,13,17.10
2009,08,21,05,14,17.10
2009,08,21,05,15,17.10
2009,08,21,05,16,17.10
2009,08,21,05,17,17.10
2009,08,21,05,18,17.10
2009,08,21,05,19,17.10
2009,08,21,05,20,17.20
2009,08,21,05,21,17.20
2009,08,21,05,22,17.20
2009,08,21,05,23,17.20
2009,08,21,05,24,17.20
2009,08,21,05,25,17.20
2009,08,21,05,26,17.20
2009,08,21,05,27,17.20
2009,08,21,05,28,17.20
2009,08,21,05,29,17.30
2009,08,21,05,30,17.30
2009,08,21,05,31,17.30
2009,08,21,05,32,17.30
2009,08,21,05,33,17.30
2009,08,21,05,34,17.40
2009,08,21,05,35,17.40
2009,08,21,05,36,17.40
2009,08,21,05,37,17.40
2009,08,21,05,38,17.40
2009,08,21,05,39,17.40
2009,08,21,05,40,17.40
2009,08,21,05,41,17.40
2009,08,21,05,42,17.40
2009,08,21,05,43,17.40
2009,08,21,05,44,17.40
2009,08,21,05,45,17.40
2009,08,21,05,46,17.40
2009,08,21,05,47,17.40
2009,08,21,05,48,17.30
2009,08,21,05,49,17.30
2009,08,21,05,50,17.30
2009,08,21,05,51,17.30
2009,08,21,05,52,17.30
2009,08,21,05,53,17.30
2009,08,21,05,54,17.30
2009,08,21,05,55,17.30
2009,08,21,05,56,17.30
2009,08,21,05,57,17.30
2009,08,21,05,58,17.30
2009,08,21,05,59,17.30
2009,08,21,06,00,17.30
2009,08,21,06,01,17.30
2009,08,21,06,02,17.30
2009,08,21,06,03,17.30
2009,08,21,06,04,17.30
2009,08,21,06,05,17.30
2009,08,21,06,06,17.30
2009,08,21,06,07,17.30
2009,08,21,06,08,17.40
2009,08,21,06,09,17.40
2009,08,21,06,10,17.40
2009,08,21,06,11,17.40
2009,08,21,06,12,17.40
2009,08,21,06,13,17.40
2009,08,21,06,14,17.40
2009,08,21,06,15,17.40
2009,08,21,06,16,17.40
2009,08,21,06,17,17.40
2009,08,21,06,18,17.40
2009,08,21,06,19,17.40
2009,08,21,06,20,17.40
2009,08,21,06,21,17.40
2009,08,21,06,22,17.40
2009,08,21,06,23,17.40
2009,08,21,06,24,17.40
2009,08,21,06,25,17.40
2009,08,21,06,26,17.40
2009,08,21,06,27,17.40
2009,08,21,06,28,17.40
2009,08,21,06,29,17.40
2009,08,21,06,30,17.40
2009,08,21,06,31,17.40
2009,08,21,06,32,17.40
2009,08,21,06,33,17.40
2009,08,21,06,34,17.40
2009,08,21,06,35,17.40
2009,08,21,06,36,17.40
2009,08,21,06,37,17.40
2009,08,21,06,38,17.40
2009,08,21,06,39,17.40
2009,08,21,06,40,17.40
2009,08,21,06,41,17.40
2009,08,21,06,42,17.40
2009,08,21,06,43,17.40
2009,08,21,06,44,17.40
2009,08,21,06,45,17.40
2009,08,21,06,46,17.40
2009,08,21,06,47,17.40
2009,08,21,06,48,17.40
2009,08,21,06,49,17.40
2009,08,21,06,50,17.40
2009,08,21,06,51,17.50
2009,08,21,06,52,17.50
2009,08,21,06,53,17.50
2009,08,21,06,54,17.50
2009,08,21,06,55,17.50
2009,08,21,06,56,17.50
2009,08,21,06,57,17.50
2009,08,21,06,58,17.50
2009,08,21,06,59,17.50
2009,08,21,07,00,17.50
2009,08,21,07,01,17.50
2009,08,21,07,02,17.50
2009,08,21,07,03,17.50
2009,08,21,07,04,17.50
2009,08,21,07,05,17.50
2009,08,21,07,06,17.50
2009,08,21,07,07,17.50
2009,08,21,07,08,17.50
2009,08,21,07,09,17.50
2009,08,21,07,10,17.50
2009,08,21,07,11,17.50
2009,08,21,07,12,17.50
2009,08,21,07,13,17.50
2009,08,21,07,14,17.60
2009,08,21,07,15,17.60
2009,08,21,07,16,17.60
2009,08,21,07,17,17.60
2009,08,21,07,18,17.60
2009,08,21,07,19,17.60
2009,08,21,07,20,17.60
2009,08,21,07,21,17.50
2009,08,21,07,22,17.50
2009,08,21,07,23,17.40
2009,08,21,07,24,17.40
2009,08,21,07,25,17.40
2009,08,21,07,26,17.30
2009,08,21,07,27,17.30
2009,08,21,07,28,17.30
2009,08,21,07,29,17.30
2009,08,21,07,30,17.30
2009,08,21,07,31,17.30
2009,08,21,07,32,17.40
2009,08,21,07,33,17.40
2009,08,21,07,34,17.40
2009,08,21,07,35,17.40
2009,08,21,07,36,17.40
2009,08,21,07,37,17.40
2009,08,21,07,38,17.40
2009,08,21,07,39,17.40
2009,08,21,07,40,17.40
2009,08,21,07,41,17.40
2009,08,21,07,42,17.40
2009,08,21,07,43,17.40
2009,08,21,07,44,17.50
2009,08,21,07,45,17.50
2009,08,21,07,46,17.50
2009,08,21,07,47,17.50
2009,08,21,07,48,17.50
2009,08,21,07,49,17.50
2009,08,21,07,50,17.50
2009,08,21,07,51,17.50
2009,08,21,07,52,17.50
2009,08,21,07,53,17.60
2009,08,21,07,54,17.60
2009,08,21,07,55,17.60
2009,08,21,07,56,17.60
2009,08,21,07,57,17.60
2009,08,21,07,58,17.60
2009,08,21,07,59,17.60
2009,08,21,08,00,17.60
2009,08,21,08,01,17.60
2009,08,21,08,02,17.60
2009,08,21,08,03,17.60
2009,08,21,08,04,17.60
2009,08,21,08,05,17.60
2009,08,21,08,06,17.60
2009,08,21,08,07,17.60
2009,08,21,08,08,17.60
2009,08,21,08,09,17.60
2009,08,21,08,10,17.60
2009,08,21,08,11,17.60
2009,08,21,08,12,17.70
2009,08,21,08,13,17.70
2009,08,21,08,14,17.70
2009,08,21,08,15,17.70
2009,08,21,08,16,17.80
2009,08,21,08,17,17.80
2009,08,21,08,18,17.80
2009,08,21,08,19,17.80
2009,08,21,08,20,17.80
2009,08,21,08,21,17.80
2009,08,21,08,22,17.80
2009,08,21,08,23,17.80
2009,08,21,08,24,17.80
2009,08,21,08,25,17.80
2009,08,21,08,26,17.80
2009,08,21,08,27,17.80
2009,08,21,08,28,17.80
2009,08,21,08,29,17.80
2009,08,21,08,30,17.80
2009,08,21,08,31,17.80
2009,08,21,08,32,17.80
2009,08,21,08,33,17.80
2009,08,21,08,34,17.80
2009,08,21,08,35,17.80
2009,08,21,08,36,17.80
2009,08,21,08,37,17.80
2009,08,21,08,38,17.80
2009,08,21,08,39,17.80
2009,08,21,08,40,17.80
2009,08,21,08,41,17.80
2009,08,21,08,42,17.80
2009,08,21,08,43,17.80
2009,08,21,08,44,17.80
2009,08,21,08,45,17.80
2009,08,21,08,46,17.80
2009,08,21,08,47,17.80
2009,08,21,08,48,17.80
2009,08,21,08,49,17.90
2009,08,21,08,50,17.90
2009,08,21,08,51,17.90
2009,08,21,08,52,17.90
2009,08,21,08,53,17.90
2009,08,21,08,54,17.90
2009,08,21,08,55,17.90
2009,08,21,08,56,17.90
2009,08,21,08,57,17.90
2009,08,21,08,58,17.80
2009,08,21,08,59,17.80
2009,08,21,09,00,17.80
2009,08,21,09,01,17.90
2009,08,21,09,02,17.90
2009,08,21,09,03,17.90
2009,08,21,09,04,17.90
2009,08,21,09,05,17.90
2009,08,21,09,06,17.90
2009,08,21,09,07,17.80
2009,08,21,09,08,17.80
2009,08,21,09,09,17.80
2009,08,21,09,10,17.80
2009,08,21,09,11,17.70
2009,08,21,09,12,17.70
2009,08,21,09,13,17.70
2009,08,21,09,14,17.70
2009,08,21,09,15,17.80
2009,08,21,09,16,17.80
2009,08,21,09,17,17.80
2009,08,21,09,18,17.90
2009,08,21,09,19,17.90
2009,08,21,09,20,17.90
2009,08,21,09,21,17.90
2009,08,21,09,22,17.90
2009,08,21,09,23,17.90
2009,08,21,09,24,17.90
2009,08,21,09,25,18.00
2009,08,21,09,26,18.00
2009,08,21,09,27,18.00
2009,08,21,09,28,18.00
2009,08,21,09,29,18.00
2009,08,21,09,30,17.90
2009,08,21,09,31,17.90
2009,08,21,09,32,17.90
2009,08,21,09,33,17.90
2009,08,21,09,34,18.00
2009,08,21,09,35,18.10
2009,08,21,09,36,18.10
2009,08,21,09,37,18.10
2009,08,21,09,38,18.10
2009,08,21,09,39,18.10
2009,08,21,09,40,18.10
2009,08,21,09,41,18.10
2009,08,21,09,42,18.10
2009,08,21,09,43,18.20
2009,08,21,09,44,18.30
2009,08,21,09,45,18.30
2009,08,21,09,46,18.40
2009,08,21,09,47,18.40
2009,08,21,09,48,18.40
2009,08,21,09,49,18.40
2009,08,21,09,50,18.40
2009,08,21,09,51,18.40
2009,08,21,09,52,18.40
2009,08,21,09,53,18.50
2009,08,21,09,54,18.50
2009,08,21,09,55,18.60
2009,08,21,09,56,18.60
2009,08,21,09,57,18.60
2009,08,21,09,58,18.60
2009,08,21,09,59,18.60
2009,08,21,10,00,18.60
2009,08,21,10,01,18.70
2009,08,21,10,02,18.70
2009,08,21,10,03,18.70
2009,08,21,10,04,18.80
2009,08,21,10,05,18.80
2009,08,21,10,06,18.90
2009,08,21,10,07,19.00
2009,08,21,10,08,19.10
2009,08,21,10,09,19.10
2009,08,21,10,10,19.10
2009,08,21,10,11,19.10
2009,08,21,10,12,19.00
2009,08,21,10,13,18.90
2009,08,21,10,14,18.90
2009,08,21,10,15,18.80
2009,08,21,10,16,18.80
2009,08,21,10,17,18.80
2009,08,21,10,18,18.80
2009,08,21,10,19,18.80
2009,08,21,10,20,18.70
2009,08,21,10,21,18.70
2009,08,21,10,22,18.70
2009,08,21,10,23,18.70
2009,08,21,10,24,18.70
2009,08,21,10,25,18.80
2009,08,21,10,26,18.80
2009,08,21,10,27,18.70
2009,08,21,10,28,18.70
2009,08,21,10,29,18.70
2009,08,21,10,30,18.70
2009,08,21,10,31,18.70
2009,08,21,10,32,18.60
2009,08,21,10,33,18.50
2009,08,21,10,34,18.50
2009,08,21,10,35,18.60
2009,08,21,10,36,18.60
2009,08,21,10,37,18.60
2009,08,21,10,38,18.60
2009,08,21,10,39,18.60
2009,08,21,10,40,18.70
2009,08,21,10,41,18.70
2009,08,21,10,42,18.80
2009,08,21,10,43,18.80
2009,08,21,10,44,18.90
2009,08,21,10,45,18.90
2009,08,21,10,46,18.90
2009,08,21,10,47,18.90
2009,08,21,10,48,19.00
2009,08,21,10,49,19.00
2009,08,21,10,50,19.00
2009,08,21,10,51,19.00
2009,08,21,10,52,19.10
2009,08,21,10,53,19.10
2009,08,21,10,54,19.10
2009,08,21,10,55,19.10
2009,08,21,10,56,19.10
2009,08,21,10,57,19.00
2009,08,21,10,58,19.10
2009,08,21,10,59,19.10
2009,08,21,11,00,19.10
2009,08,21,11,01,19.10
2009,08,21,11,02,19.10
2009,08,21,11,03,19.00
2009,08,21,11,04,19.00
2009,08,21,11,05,19.00
2009,08,21,11,06,19.00
2009,08,21,11,07,19.00
2009,08,21,11,08,19.10
2009,08,21,11,09,19.20
2009,08,21,11,10,19.20
2009,08,21,11,11,19.10
2009,08,21,11,12,19.10
2009,08,21,11,13,19.20
2009,08,21,11,14,19.30
2009,08,21,11,15,19.30
2009,08,21,11,16,19.30
2009,08,21,11,17,19.40
2009,08,21,11,18,19.50
2009,08,21,11,19,19.60
2009,08,21,11,20,19.70
2009,08,21,11,21,19.80
2009,08,21,11,22,19.90
2009,08,21,11,23,19.90
2009,08,21,11,24,20.00
2009,08,21,11,25,19.90
2009,08,21,11,26,19.80
2009,08,21,11,27,19.70
2009,08,21,11,28,19.70
2009,08,21,11,29,19.70
2009,08,21,11,30,19.70
2009,08,21,11,31,19.70
2009,08,21,11,32,19.90
2009,08,21,11,33,20.00
2009,08,21,11,34,20.10
2009,08,21,11,35,20.10
2009,08,21,11,36,20.20
2009,08,21,11,37,20.20
2009,08,21,11,38,20.20
2009,08,21,11,39,20.20
2009,08,21,11,40,20.20
2009,08,21,11,41,20.20
2009,08,21,11,42,20.20
2009,08,21,11,43,20.20
2009,08,21,11,44,20.20
2009,08,21,11,45,20.20
2009,08,21,11,46,20.20
2009,08,21,11,47,20.20
2009,08,21,11,48,20.30
2009,08,21,11,49,20.30
2009,08,21,11,50,20.30
2009,08,21,11,51,20.30
2009,08,21,11,52,20.30
2009,08,21,11,53,20.30
2009,08,21,11,54,20.30
2009,08,21,11,55,20.40
2009,08,21,11,56,20.40
2009,08,21,11,57,20.50
2009,08,21,11,58,20.50
2009,08,21,11,59,20.60
2009,08,21,12,00,20.60
2009,08,21,12,01,20.60
2009,08,21,12,02,20.50
2009,08,21,12,03,20.60
2009,08,21,12,04,20.60
2009,08,21,12,05,20.60
2009,08,21,12,06,20.70
2009,08,21,12,07,20.70
2009,08,21,12,08,20.70
2009,08,21,12,09,20.60
2009,08,21,12,10,20.70
2009,08,21,12,11,20.70
2009,08,21,12,12,20.80
2009,08,21,12,13,20.90
2009,08,21,12,14,20.90
2009,08,21,12,15,20.80
2009,08,21,12,16,20.70
2009,08,21,12,17,20.70
2009,08,21,12,18,20.70
2009,08,21,12,19,20.70
2009,08,21,12,20,20.70
2009,08,21,12,21,20.70
2009,08,21,12,22,20.70
2009,08,21,12,23,20.80
2009,08,21,12,24,20.80
2009,08,21,12,25,20.90
2009,08,21,12,26,20.90
2009,08,21,12,27,20.90
2009,08,21,12,28,20.90
2009,08,21,12,29,20.90
2009,08,21,12,30,20.90
2009,08,21,12,31,20.80
2009,08,21,12,32,20.80
2009,08,21,12,33,20.80
2009,08,21,12,34,20.80
2009,08,21,12,35,20.80
2009,08,21,12,36,20.90
2009,08,21,12,37,21.00
2009,08,21,12,38,21.00
2009,08,21,12,39,20.90
2009,08,21,12,40,20.80
2009,08,21,12,41,20.80
2009,08,21,12,42,20.70
2009,08,21,12,43,20.80
2009,08,21,12,44,20.80
2009,08,21,12,45,20.80
2009,08,21,12,46,20.80
2009,08,21,12,47,20.90
2009,08,21,12,48,20.80
2009,08,21,12,49,20.80
2009,08,21,12,50,20.80
2009,08,21,12,51,20.80
2009,08,21,12,52,20.80
2009,08,21,12,53,20.90
2009,08,21,12,54,20.90
2009,08,21,12,55,20.90
2009,08,21,12,56,20.90
2009,08,21,12,57,21.00
2009,08,21,12,58,21.00
2009,08,21,12,59,21.10
2009,08,21,13,00,21.10
2009,08,21,13,01,21.30
2009,08,21,13,02,21.40
2009,08,21,13,03,21.50
2009,08,21,13,04,21.60
2009,08,21,13,05,21.60
2009,08,21,13,06,21.60
2009,08,21,13,07,21.50
2009,08,21,13,08,21.40
2009,08,21,13,09,21.40
2009,08,21,13,10,21.40
2009,08,21,13,11,21.40
2009,08,21,13,12,21.40
2009,08,21,13,13,21.40
2009,08,21,13,14,21.50
2009,08,21,13,15,21.50
2009,08,21,13,16,21.70
2009,08,21,13,17,21.90
2009,08,21,13,18,22.00
2009,08,21,13,19,22.10
2009,08,21,13,20,22.00
2009,08,21,13,21,22.00
2009,08,21,13,22,21.90
2009,08,21,13,23,21.80
2009,08,21,13,24,21.80
2009,08,21,13,25,21.80
2009,08,21,13,26,21.80
2009,08,21,13,27,21.70
2009,08,21,13,28,21.70
2009,08,21,13,29,21.80
2009,08,21,13,30,22.00
2009,08,21,13,31,22.10
2009,08,21,13,32,22.20
2009,08,21,13,33,22.30
2009,08,21,13,34,22.40
2009,08,21,13,35,22.40
2009,08,21,13,36,22.30
2009,08,21,13,37,22.30
2009,08,21,13,38,22.50
2009,08,21,13,39,22.50
2009,08,21,13,40,22.30
2009,08,21,13,41,22.30
2009,08,21,13,42,22.30
2009,08,21,13,43,22.30
2009,08,21,13,44,22.40
2009,08,21,13,45,22.50
2009,08,21,13,46,22.60
2009,08,21,13,47,22.70
2009,08,21,13,48,22.70
2009,08,21,13,49,22.60
2009,08,21,13,50,22.30
2009,08,21,13,51,22.10
2009,08,21,13,52,21.90
2009,08,21,13,53,21.80
2009,08,21,13,54,21.80
2009,08,21,13,55,21.80
2009,08,21,13,56,21.80
2009,08,21,13,57,21.70
2009,08,21,13,58,21.70
2009,08,21,13,59,21.80
2009,08,21,14,00,21.80
2009,08,21,14,01,21.80
2009,08,21,14,02,21.90
2009,08,21,14,03,21.90
2009,08,21,14,04,21.90
2009,08,21,14,05,21.80
2009,08,21,14,06,21.80
2009,08,21,14,07,21.80
2009,08,21,14,08,21.80
2009,08,21,14,09,21.70
2009,08,21,14,10,21.60
2009,08,21,14,11,21.60
2009,08,21,14,12,21.60
2009,08,21,14,13,21.60
2009,08,21,14,14,21.60
2009,08,21,14,15,21.70
2009,08,21,14,16,21.80
2009,08,21,14,17,21.80
2009,08,21,14,18,21.80
2009,08,21,14,19,21.80
2009,08,21,14,20,21.80
2009,08,21,14,21,21.80
2009,08,21,14,22,21.70
2009,08,21,14,23,21.70
2009,08,21,14,24,21.70
2009,08,21,14,25,21.60
2009,08,21,14,26,21.60
2009,08,21,14,27,21.50
2009,08,21,14,28,21.50
2009,08,21,14,29,21.40
2009,08,21,14,30,21.40
2009,08,21,14,31,21.40
2009,08,21,14,32,21.40
2009,08,21,14,33,21.40
2009,08,21,14,34,21.40
2009,08,21,14,35,21.40
2009,08,21,14,36,21.40
2009,08,21,14,37,21.40
2009,08,21,14,38,21.50
2009,08,21,14,39,21.50
2009,08,21,14,40,21.50
2009,08,21,14,41,21.60
2009,08,21,14,42,21.60
2009,08,21,14,43,21.70
2009,08,21,14,44,21.80
2009,08,21,14,45,21.80
2009,08,21,14,46,21.80
2009,08,21,14,47,21.80
2009,08,21,14,48,21.90
2009,08,21,14,49,21.90
2009,08,21,14,50,22.00
2009,08,21,14,51,22.00
2009,08,21,14,52,22.00
2009,08,21,14,53,21.90
2009,08,21,14,54,22.00
2009,08,21,14,55,22.10
2009,08,21,14,56,22.20
2009,08,21,14,57,22.40
2009,08,21,14,58,22.50
2009,08,21,14,59,22.50
2009,08,21,15,00,22.50
2009,08,21,15,01,22.50
2009,08,21,15,02,22.60
2009,08,21,15,03,22.60
2009,08,21,15,04,22.60
2009,08,21,15,05,22.70
2009,08,21,15,06,22.70
2009,08,21,15,07,22.70
2009,08,21,15,08,22.70
2009,08,21,15,09,22.80
2009,08,21,15,10,22.80
2009,08,21,15,11,22.70
2009,08,21,15,12,22.80
2009,08,21,15,13,22.80
2009,08,21,15,14,22.80
2009,08,21,15,15,22.80
2009,08,21,15,16,22.60
2009,08,21,15,17,22.40
2009,08,21,15,18,22.30
2009,08,21,15,19,22.10
2009,08,21,15,20,21.90
2009,08,21,15,21,21.80
2009,08,21,15,22,21.60
2009,08,21,15,23,21.60
2009,08,21,15,24,21.60
2009,08,21,15,25,21.60
2009,08,21,15,26,21.70
2009,08,21,15,27,21.70
2009,08,21,15,28,21.70
2009,08,21,15,29,21.70
2009,08,21,15,30,21.80
2009,08,21,15,31,21.80
2009,08,21,15,32,21.80
2009,08,21,15,33,21.80
2009,08,21,15,34,21.70
2009,08,21,15,35,21.60
2009,08,21,15,36,21.50
2009,08,21,15,37,21.50
2009,08,21,15,38,21.60
2009,08,21,15,39,21.60
2009,08,21,15,40,21.60
2009,08,21,15,41,21.60
2009,08,21,15,42,21.60
2009,08,21,15,43,21.70
2009,08,21,15,44,21.70
2009,08,21,15,45,21.80
2009,08,21,15,46,21.80
2009,08,21,15,47,21.80
2009,08,21,15,48,21.80
2009,08,21,15,49,21.80
2009,08,21,15,50,21.90
2009,08,21,15,51,22.10
2009,08,21,15,52,22.20
2009,08,21,15,53,22.20
2009,08,21,15,54,22.30
2009,08,21,15,55,22.20
2009,08,21,15,56,22.10
2009,08,21,15,57,22.00
2009,08,21,15,58,21.90
2009,08,21,15,59,21.70
2009,08,21,16,00,21.60
2009,08,21,16,01,21.50
2009,08,21,16,02,21.50
2009,08,21,16,03,21.40
2009,08,21,16,04,21.50
2009,08,21,16,05,21.50
2009,08,21,16,06,21.50
2009,08,21,16,07,21.30
2009,08,21,16,08,21.20
2009,08,21,16,09,21.10
2009,08,21,16,10,21.00
2009,08,21,16,11,20.90
2009,08,21,16,12,20.90
2009,08,21,16,13,20.80
2009,08,21,16,14,20.70
2009,08,21,16,15,20.70
2009,08,21,16,16,20.70
2009,08,21,16,17,20.70
2009,08,21,16,18,20.70
2009,08,21,16,19,20.60
2009,08,21,16,20,20.60
2009,08,21,16,21,20.60
2009,08,21,16,22,20.50
2009,08,21,16,23,20.40
2009,08,21,16,24,20.30
2009,08,21,16,25,20.30
2009,08,21,16,26,20.20
2009,08,21,16,27,20.20
2009,08,21,16,28,20.20
2009,08,21,16,29,20.10
2009,08,21,16,30,20.10
2009,08,21,16,31,20.10
2009,08,21,16,32,20.10
2009,08,21,16,33,20.10
2009,08,21,16,34,20.20
2009,08,21,16,35,20.20
2009,08,21,16,36,20.20
2009,08,21,16,37,20.20
2009,08,21,16,38,20.20
2009,08,21,16,39,20.20
2009,08,21,16,40,20.20
2009,08,21,16,41,20.20
2009,08,21,16,42,20.30
2009,08,21,16,43,20.30
2009,08,21,16,44,20.40
2009,08,21,16,45,20.40
2009,08,21,16,46,20.40
2009,08,21,16,47,20.40
2009,08,21,16,48,20.40
2009,08,21,16,49,20.50
2009,08,21,16,50,20.50
2009,08,21,16,51,20.60
2009,08,21,16,52,20.60
2009,08,21,16,53,20.60
2009,08,21,16,54,20.60
2009,08,21,16,55,20.60
2009,08,21,16,56,20.70
2009,08,21,16,57,20.70
2009,08,21,16,58,20.80
2009,08,21,16,59,20.80
2009,08,21,17,00,20.80
2009,08,21,17,01,20.80
2009,08,21,17,02,20.80
2009,08,21,17,03,20.90
2009,08,21,17,04,20.90
2009,08,21,17,05,20.90
2009,08,21,17,06,20.90
2009,08,21,17,07,20.90
2009,08,21,17,08,20.80
2009,08,21,17,09,20.80
2009,08,21,17,10,20.80
2009,08,21,17,11,20.80
2009,08,21,17,12,20.80
2009,08,21,17,13,20.70
2009,08,21,17,14,20.60
2009,08,21,17,15,20.50
2009,08,21,17,16,20.40
2009,08,21,17,17,20.30
2009,08,21,17,18,20.30
2009,08,21,17,19,20.30